Hourly Data Report for June 17, 2021

WESTERN HEAD
NOVA SCOTIA
Current Station Operator: ECCC - MSC

43°59'24.070" N
64°39'51.008" W
10.10 m
8206240
71411
WWE

Download Data

Hourly Data (June 2021)
Hourly Data Report for June 17, 2021
TIME
LST
Temp Definition
°C
Dew Point Definition
°C
Rel Hum Definition
%
Precip. Amount Definition
mm

Wind Dir Definition
10's deg

Wind Spd Definition
km/h
Visibility Definition
km
Stn Press Definition
kPa
Hmdx Definition


Wind Chill Definition


Weather Definition


00:00 13.1 8.7 75 0.0 27 16   100.66     LegendNANA
01:00 12.5 8.7 78 0.0 28 15   100.70     LegendNANA
02:00 11.6 8.9 84 0.0 28 15   100.74     LegendNANA
03:00 10.9 9.0 88 0.0 29 13   100.76     LegendNANA
04:00 8.8 7.9 94 0.0 26 8   100.79     LegendNANA
05:00 9.0 8.2 95 0.0 22 7   100.83     LegendNANA
06:00 11.3 9.6 90 0.0 22 7   100.89     LegendNANA
07:00 14.0 10.5 79 0.0 24 7   100.93     LegendNANA
08:00 14.2 10.9 81 0.0 18 10   100.96     LegendNANA
09:00 14.2 11.7 85 0.0 20 17   101.00     LegendNANA
10:00 15.4 11.8 79 0.0 19 19   100.99     LegendNANA
11:00 16.9 11.5 71 0.0 19 25   100.98     LegendNANA
12:00 15.6 10.1 70 0.0 19 22   100.98     LegendNANA
13:00 15.4 10.2 71 0.0 19 29   100.99     LegendNANA
14:00 15.1 11.1 77 0.0 20 31   100.98     LegendNANA
15:00 15.8 10.5 71 0.0 20 30   100.99     LegendNANA
16:00 15.3 10.8 75 0.0 20 27   101.00     LegendNANA
17:00 17.4 8.7 57 0.0 21 19   101.01     LegendNANA
18:00 18.7 7.3 47 0.0 24 18   101.04     LegendNANA
19:00 18.4 6.6 46 0.0 24 18   101.07     LegendNANA
20:00 11.2 9.8 91 0.0 24 8   101.13     LegendNANA
21:00 10.5 9.5 93 0.0 25 7   101.24     LegendNANA
22:00 9.1 7.4 90 0.0 24 11   101.30     LegendNANA
23:00 10.5 9.3 92 0.0 23 12   101.32     LegendNANA

Notes on Data Quality.

Legend

  • E = Estimated
  • M = Missing
  • NA = Not Available*
  • [empty] = Indicates an unobserved value
Date modified: